Search for airport 
image banner adimage banner ad
image banner ad

DAOR - Bechar / Boudghene Ben Ali Lotfi

Located in , Algeria

ICAO - DAOR, IATA - CBH

Data provided by Airmate  

General information

Coordinates: N31°39'2" W2°15'11"
Elevation is 2657 feet MSL.
 
View others Airports in Béchar Province

Operational data

Open for public use
Current time UTC:
Current local time:
Weather
METAR: DAOR 230700Z 08006KT 9999 SCT033 27/08 Q1017
TAF: TAF DAOR 230500Z 2306/2315 06010KT 9999 FEW033 SCT100 PROB40 TEMPO 2306/2312 FEW030CB
View NOTAMs / SUP AIP / TFR affecting this airport [VIEW]
Communications frequencies: [VIEW]

Runways:

RWY identifierQFULength (ft)Width (ft)SurfaceLDA (ft)
0660°12245148ASP
24240°11883148
18180°9843148
36360°9843148

Airport contact information

Address: Algeria

Satellite view of DAOR